STARLINK-3996 (52617 NORAD) Tracking and Keplerian Element Data

This shows tracking and keplerian element data for the satellite.

Feedback or suggestion? Click here.




ElementValue
Catalog52617
NameSTARLINK-3996
Epoch Orbit130
Epoch Day192.91667824
Epoch Year2022
RAAN152.9778
Inclination53.2176
Eccentricity0.0001193
Argument of Perigee86.5747
Mean Anonmoly103.68
Mean Motion15.49922846
Decay Rate-0.00076345
L11 52617U 22052V 22192.91667824 -.00076345 00000+0 -13485-2 0 9990
L22 52617 53.2176 152.9778 0001193 86.5747 103.6800 15.49922846 1309

Live tracking and technical data element details for STARLINK-3996 (NORAD 52617). STARLINK-3996 can be tracked NOW for your location showing map with azimuth and elevation plus other details from your city location.

Track the satellite on the map from your city or location and see movement details for azimuth, elevation, latitude, longitude, range, height, and movement on the map or in text.







IsCatalogInMostPopularTable: catalog: 52617, numindb: 6
Update: records affected: 1



GetName: 52617 STARLINK-3996

Hit Count: updated at: Sun, 14 Aug 2022 01:15:46 GMT